Twin Falls, ID

9:12 AM MDT on August 25, 2016 (GMT -0600)
Joslin Field-Magic Valley Regional

Weather History for KTWF - September, 2013

Change the Weather History Date:

Thursday, September 12, 2013

  Actual Average Record
Temperature  
Mean Temperature 70 °F -  
Max Temperature 81 °F 79 °F 93 °F (1990)
Min Temperature 58 °F 49 °F 33 °F (1988)
Degree Days  
Heating Degree Days 0 3  
Month to date heating degree days 0 30  
Since 1 July heating degree days 0 51  
Cooling Degree Days 5 2  
Month to date cooling degree days 76 42  
Year to date cooling degree days 1115 659  
Growing Degree Days 19 (Base 50)    
Moisture  
Dew Point 55 °F    
Average Humidity 65    
Maximum Humidity 84    
Minimum Humidity 46    
Precipitation  
Precipitation 0.02 in 0.01 in 0.43 in (1998)
Month to date precipitation 0.70 0.19  
Year to date precipitation 3.89 7.07  
Sea Level Pressure  
Sea Level Pressure 29.96 in    
Wind  
Wind Speed 9 mph (SE)    
Max Wind Speed 16 mph    
Max Gust Speed 20 mph    
Visibility 10 miles    
Events Rain , Thunderstorm    
T = Trace of Precipitation, MM = Missing Value Source: NWS Daily Summary

Daily Weather History Graph

Daily Weather History Graph

Search for Another Location

Airport or City:

Trip Planner

Search our weather history database for the weather conditions in past years. The results will help you decide how hot, cold, wet, or windy it might be!

Date:

Astronomy

Sep. 12, 2013 Rise Set
Actual Time 7:14 AM MDT 7:52 PM MDT
Civil Twilight 6:46 AM MDT 8:20 PM MDT
Nautical Twilight 6:13 AM MDT 8:54 PM MDT
Astronomical Twilight 5:38 AM MDT 9:28 PM MDT
Moon 2:54 PM MDT (9/12) No Moon Set
Length of Visible Light 13h 34m
Length of Day
12h 37m
Waxing Crescent, 51% of the Moon is Illuminated
Sep 12
Waxing Crescent
Sep 19
Full
Sep 26
Last Quarter
Oct 4
New
Oct 11
First Quarter

Hourly Weather History & Observations

Time (MDT) Temp. Dew Point Humidity Pressure Visibility Wind Dir Wind Speed Gust Speed Precip Events Conditions
12:53 AM 62.1 °F 52.0 °F 70% 29.94 in 10.0 mi Calm Calm - N/A   Clear
1:53 AM 63.0 °F 53.1 °F 70% 29.92 in 10.0 mi SSE 5.8 mph - N/A   Clear
2:53 AM 64.0 °F 52.0 °F 65% 29.92 in 10.0 mi SSE 9.2 mph - N/A   Overcast
3:53 AM 62.1 °F 53.1 °F 72% 29.95 in 10.0 mi NNE 4.6 mph - N/A   Overcast
4:53 AM 63.0 °F 55.9 °F 78% 29.95 in 10.0 mi ENE 10.4 mph - N/A   Partly Cloudy
5:53 AM 62.1 °F 55.9 °F 80% 29.96 in 10.0 mi East 6.9 mph - N/A   Scattered Clouds
6:53 AM 61.0 °F 57.0 °F 87% 29.97 in 10.0 mi NE 6.9 mph - 0.02 in Rain Light Rain
7:53 AM 62.1 °F 57.0 °F 84% 29.99 in 10.0 mi East 8.1 mph - 0.00 in   Scattered Clouds
8:53 AM 64.0 °F 57.0 °F 78% 29.99 in 10.0 mi ENE 11.5 mph - N/A   Mostly Cloudy
9:53 AM 66.9 °F 57.9 °F 73% 29.99 in 10.0 mi East 11.5 mph - N/A   Overcast
10:53 AM 70.0 °F 57.9 °F 65% 29.99 in 10.0 mi East 10.4 mph - N/A   Partly Cloudy
11:53 AM 73.9 °F 57.9 °F 57% 29.96 in 10.0 mi ENE 9.2 mph - N/A   Clear
12:53 PM 75.9 °F 55.9 °F 50% 29.94 in 10.0 mi ENE 12.7 mph - N/A   Clear
1:07 PM 78.8 °F 57.2 °F 47% 30.08 in 10.0 mi NE 10.4 mph - N/A Thunderstorm Clear
1:53 PM 77.0 °F 55.9 °F 48% 29.91 in 10.0 mi ENE 9.2 mph - N/A Thunderstorm Clear
2:36 PM 75.2 °F 55.4 °F 50% 30.05 in 10.0 mi South 10.4 mph - N/A Thunderstorm Thunderstorm
2:53 PM 73.9 °F 57.0 °F 55% 29.90 in 10.0 mi South 5.8 mph - N/A Thunderstorm Thunderstorm
3:06 PM 73.4 °F 57.2 °F 57% 30.04 in 10.0 mi South 3.5 mph - N/A   Clear
3:20 PM 75.2 °F 57.2 °F 53% 30.04 in 10.0 mi SSW 4.6 mph - N/A Thunderstorm Clear
3:35 PM 78.8 °F 55.4 °F 44% 30.03 in 10.0 mi Calm Calm - N/A   Clear
3:53 PM 78.1 °F 55.0 °F 45% 29.87 in 10.0 mi South 6.9 mph - N/A   Clear
4:07 PM 75.2 °F 57.2 °F 53% 30.02 in 10.0 mi South 10.4 mph 19.6 mph N/A Thunderstorm Clear
4:29 PM 75.2 °F 55.4 °F 50% 30.02 in 10.0 mi South 12.7 mph - N/A   Clear
4:53 PM 73.9 °F 55.0 °F 52% 29.87 in 10.0 mi South 9.2 mph - N/A   Clear
5:53 PM 75.0 °F 54.0 °F 48% 29.87 in 10.0 mi SE 13.8 mph - N/A   Clear
6:53 PM 71.1 °F 51.1 °F 49% 29.87 in 10.0 mi SSE 10.4 mph - 0.00 in Rain Light Rain
7:53 PM 66.9 °F 55.0 °F 66% 29.89 in 10.0 mi South 12.7 mph - 0.00 in   Mostly Cloudy
8:53 PM 64.9 °F 55.9 °F 73% 29.91 in 10.0 mi West 8.1 mph - 0.00 in   Mostly Cloudy
9:53 PM 62.1 °F 53.1 °F 72% 29.92 in 10.0 mi West 3.5 mph - N/A   Clear
10:53 PM 60.1 °F 54.0 °F 80% 29.94 in 10.0 mi Calm Calm - N/A   Scattered Clouds
11:53 PM 61.0 °F 55.0 °F 81% 29.93 in 10.0 mi SSE 9.2 mph - N/A   Overcast